linux/drivers/watchdog/
<<
>>
Prefs
Kconfig 57401 2017-01-06 10:16:53
Makefile 7459 2017-01-06 10:16:53
acquirewdt.c 8692 2017-01-06 10:16:53
advantechwdt.c 7983 2017-01-06 10:16:53
alim1535_wdt.c 10135 2017-01-06 10:16:53
alim7101_wdt.c 11167 2017-01-06 10:16:53
ar7_wdt.c 7879 2017-01-06 10:16:53
asm9260_wdt.c 9428 2017-01-06 10:16:53
aspeed_wdt.c 5157 2017-01-06 10:16:53
at32ap700x_wdt.c 9841 2017-01-06 10:16:53
at91rm9200_wdt.c 8064 2017-01-06 10:16:53
at91sam9_wdt.c 10960 2017-01-06 10:16:53
at91sam9_wdt.h 1530 2017-01-06 10:16:53
ath79_wdt.c 7566 2017-01-06 10:16:53
atlas7_wdt.c 5975 2017-01-06 10:16:53
bcm2835_wdt.c 6941 2017-01-06 10:16:53
bcm47xx_wdt.c 6150 2017-01-06 10:16:53
bcm63xx_wdt.c 7136 2017-01-06 10:16:53
bcm7038_wdt.c 5818 2017-01-06 10:16:53
bcm_kona_wdt.c 9615 2017-01-06 10:16:53
bfin_wdt.c 10356 2017-01-06 10:16:53
booke_wdt.c 5971 2017-01-06 10:16:53
cadence_wdt.c 13098 2017-01-06 10:16:53
coh901327_wdt.c 13086 2017-01-06 10:16:53
cpu5wdt.c 6791 2017-01-06 10:16:53
cpwd.c 16264 2017-01-06 10:16:53
da9052_wdt.c 5337 2017-01-06 10:16:53
da9055_wdt.c 4605 2017-01-06 10:16:53
da9062_wdt.c 6458 2017-01-06 10:16:53
da9063_wdt.c 5534 2017-01-06 10:16:53
davinci_wdt.c 6497 2017-01-06 10:16:53
diag288_wdt.c 7647 2017-01-06 10:16:53
digicolor_wdt.c 4645 2017-01-06 10:16:53
dw_wdt.c 8149 2017-01-06 10:16:53
ebc-c384_wdt.c 4305 2017-01-06 10:16:53
ep93xx_wdt.c 4452 2017-01-06 10:16:53
eurotechwdt.c 10928 2017-01-06 10:16:53
f71808e_wdt.c 22084 2017-01-06 10:16:53
gef_wdt.c 7672 2017-01-06 10:16:53
geodewdt.c 6603 2017-01-06 10:16:53
gpio_wdt.c 6045 2017-01-06 10:16:53
hpwdt.c 22238 2017-01-06 10:16:53
i6300esb.c 12672 2017-01-06 10:16:53
iTCO_vendor.h 680 2017-01-06 10:16:53
iTCO_vendor_support.c 11089 2017-01-06 10:16:53
iTCO_wdt.c 19346 2017-01-06 10:16:53
ib700wdt.c 8519 2017-01-06 10:16:53
ibmasr.c 9628 2017-01-06 10:16:53
ie6xx_wdt.c 8769 2017-01-06 10:16:53
imgpdc_wdt.c 9602 2017-01-06 10:16:53
imx2_wdt.c 10757 2017-01-06 10:16:53
indydog.c 4703 2017-01-06 10:16:53
intel-mid_wdt.c 4347 2017-01-06 10:16:53
intel_scu_watchdog.c 15396 2017-01-06 10:16:53
intel_scu_watchdog.h 2053 2017-01-06 10:16:53
iop_wdt.c 6030 2017-01-06 10:16:53
it8712f_wdt.c 10199 2017-01-06 10:16:53
it87_wdt.c 18703 2017-01-06 10:16:53
ixp4xx_wdt.c 4680 2017-01-06 10:16:53
jz4740_wdt.c 6364 2017-01-06 10:16:53
kempld_wdt.c 14807 2017-01-06 10:16:53
ks8695_wdt.c 7838 2017-01-06 10:16:53
lantiq_wdt.c 5878 2017-01-06 10:16:53
lpc18xx_wdt.c 9307 2017-01-06 10:16:53
m54xx_wdt.c 5130 2017-01-06 10:16:53
machzwd.c 10054 2017-01-06 10:16:53
max63xx_wdt.c 7154 2017-01-06 10:16:53
max77620_wdt.c 5472 2017-01-06 10:16:53
mei_wdt.c 16305 2017-01-06 10:16:53
mena21_wdt.c 6031 2017-01-06 10:16:53
menf21bmc_wdt.c 5492 2017-01-06 10:16:53
meson_gxbb_wdt.c 8143 2017-01-06 10:16:53
meson_wdt.c 6585 2017-01-06 10:16:53
mixcomwd.c 7428 2017-01-06 10:16:53
moxart_wdt.c 4566 2017-01-06 10:16:53
mpc8xxx_wdt.c 7024 2017-01-06 10:16:53
mt7621_wdt.c 4294 2017-01-06 10:16:53
mtk_wdt.c 6862 2017-01-06 10:16:53
mtx-1_wdt.c 6368 2017-01-06 10:16:53
mv64x60_wdt.c 7825 2017-01-06 10:16:53
ni903x_wdt.c 6899 2017-01-06 10:16:53
nuc900_wdt.c 7310 2017-01-06 10:16:53
nv_tco.c 12493 2017-01-06 10:16:53
nv_tco.h 2062 2017-01-06 10:16:53
octeon-wdt-main.c 17230 2017-01-06 10:16:53
octeon-wdt-nmi.S 1370 2017-01-06 10:16:53
of_xilinx_wdt.c 6546 2017-01-06 10:16:53
omap_wdt.c 9788 2017-01-06 10:16:53
omap_wdt.h 2300 2017-01-06 10:16:53
orion_wdt.c 16996 2017-01-06 10:16:53
pc87413_wdt.c 14364 2017-01-06 10:16:53
pcwd.c 26527 2017-01-06 10:16:53
pcwd_pci.c 20378 2017-01-06 10:16:53
pcwd_usb.c 21624 2017-01-06 10:16:53
pic32-dmt.c 5743 2017-01-06 10:16:53
pic32-wdt.c 6240 2017-01-06 10:16:53
pika_wdt.c 6878 2017-01-06 10:16:53
pnx4008_wdt.c 7267 2017-01-06 10:16:53
pnx833x_wdt.c 7250 2017-01-06 10:16:53
qcom-wdt.c 6521 2017-01-06 10:16:53
rc32434_wdt.c 8324 2017-01-06 10:16:53
rdc321x_wdt.c 7328 2017-01-06 10:16:53
renesas_wdt.c 5365 2017-01-06 10:16:53
retu_wdt.c 4630 2017-01-06 10:16:53
riowd.c 5716 2017-01-06 10:16:53
rn5t618_wdt.c 5287 2017-01-06 10:16:53
rt2880_wdt.c 5041 2017-01-06 10:16:53
s3c2410_wdt.c 19929 2017-01-06 10:16:53
sa1100_wdt.c 4751 2017-01-06 10:16:53
sama5d4_wdt.c 6468 2017-01-06 10:16:53
sb_wdog.c 8737 2017-01-06 10:16:53
sbc60xxwdt.c 10352 2017-01-06 10:16:53
sbc7240_wdt.c 7049 2017-01-06 10:16:53
sbc8360.c 10039 2017-01-06 10:16:53
sbc_epx_c3.c 5119 2017-01-06 10:16:53
sbc_fitpc2_wdt.c 5377 2017-01-06 10:16:53
sbsa_gwdt.c 11246 2017-01-06 10:16:53
sc1200wdt.c 11388 2017-01-06 10:16:53
sc520_wdt.c 11080 2017-01-06 10:16:53
sch311x_wdt.c 13801 2017-01-06 10:16:53
scx200_wdt.c 6599 2017-01-06 10:16:53
shwdt.c 9322 2017-01-06 10:16:53
sirfsoc_wdt.c 5819 2017-01-06 10:16:53
smsc37b787_wdt.c 15474 2017-01-06 10:16:53
softdog.c 3686 2017-01-06 10:16:53
sp5100_tco.c 15328 2017-01-06 10:16:53
sp5100_tco.h 1732 2017-01-06 10:16:53
sp805_wdt.c 7312 2017-01-06 10:16:53
st_lpc_wdt.c 8143 2017-01-06 10:16:53
stmp3xxx_rtc_wdt.c 4121 2017-01-06 10:16:53
sun4v_wdt.c 4594 2017-01-06 10:16:53
sunxi_wdt.c 8447 2017-01-06 10:16:53
tangox_wdt.c 5514 2017-01-06 10:16:53
tegra_wdt.c 7890 2017-01-06 10:16:53
ts4800_wdt.c 5352 2017-01-06 10:16:53
ts72xx_wdt.c 10015 2017-01-06 10:16:53
twl4030_wdt.c 3873 2017-01-06 10:16:53
txx9wdt.c 4655 2017-01-06 10:16:53
ux500_wdt.c 4104 2017-01-06 10:16:53
via_wdt.c 7638 2017-01-06 10:16:53
w83627hf_wdt.c 10631 2017-01-06 10:16:53
w83877f_wdt.c 10171 2017-01-06 10:16:53
w83977f_wdt.c 12093 2017-01-06 10:16:53
wafer5823wdt.c 7256 2017-01-06 10:16:53
watchdog_core.c 11342 2017-01-06 10:16:53
watchdog_core.h 1330 2017-01-06 10:16:53
watchdog_dev.c 25219 2017-01-06 10:16:53
wd501p.h 1598 2017-01-06 10:16:53
wdrtas.c 15626 2017-01-06 10:16:53
wdt.c 15830 2017-01-06 10:16:53
wdt285.c 4856 2017-01-06 10:16:53
wdt977.c 12079 2017-01-06 10:16:53
wdt_pci.c 17672 2017-01-06 10:16:53
wm831x_wdt.c 7533 2017-01-06 10:16:53
wm8350_wdt.c 4240 2017-01-06 10:16:53
xen_wdt.c 7630 2017-01-06 10:16:53
ziirave_wdt.c 9564 2017-01-06 10:16:53